This demonstration page uses our WeatherBlox Daily Observations layout. Learn more.

Left ArrowRight Arrow

39.51506, -84.39828

Hourly Observations for April 13, 2016

Temp ( °F °C ) Dew Point ( °F °C ) Humidity (%) Winds ( mph kmh ) Pressure ( in mb ) Visibility ( mi km ) Precip ( " mm )
12:15 am 00:15 Clear 35 1.9 31 -0.4 85 85 N 3 6 30.39 1029 10 16 N/A
12:35 am 00:35 Clear 36 2 32 -0.2 86 86 N N/A 30.39 1029 10 16 N/A
12:55 am 00:55 Clear 34 1.3 31 -0.7 87 87 N N/A 30.39 1029 10 16 N/A
1:15 am 01:15 Clear 34 1.2 31 -0.8 87 87 NNE 3 6 30.39 1029 10 16 N/A
1:35 am 01:35 Clear 34 1.3 31 -0.6 87 87 NNE 3 6 30.39 1029 10 16 N/A
1:55 am 01:55 Clear 37 2.6 32 0.1 84 84 N N/A 30.39 1029 10 16 N/A
2:15 am 02:15 Clear 34 1.2 30 -1 85 85 NNE 3 6 30.39 1029 10 16 N/A
2:35 am 02:35 Clear 34 1.2 30 -0.9 86 86 N 3 6 30.39 1029 10 16 N/A
2:55 am 02:55 Clear 34 1.2 31 -0.8 87 87 NNE 3 6 30.39 1029 10 16 N/A
3:15 am 03:15 Clear 34 1.2 31 -0.8 87 87 NNE 3 6 30.39 1029 10 16 N/A
3:35 am 03:35 Clear 34 1.2 31 -0.7 87 87 NNE 6 9 30.39 1029 10 16 N/A
3:55 am 03:55 Clear 35 1.9 31 -0.5 84 84 NNE 5 7 30.39 1029 10 16 N/A
4:15 am 04:15 Clear 35 1.4 29 -1.8 80 80 NNE 5 7 30.39 1029 10 16 N/A
4:35 am 04:35 Clear 34 1.3 28 -2 79 79 NNE 5 7 30.39 1029 10 16 N/A
4:55 am 04:55 Clear 37 2.6 29 -1.6 74 74 NNE 3 6 30.39 1029 10 16 N/A
5:15 am 05:15 Clear 37 2.6 29 -1.9 73 73 N 3 6 30.39 1029 10 16 N/A
5:35 am 05:35 Clear 37 2.6 29 -1.5 75 75 N N/A 30.39 1029 10 16 N/A
5:55 am 05:55 Clear 37 2.6 28 -2 72 72 N N/A 30.39 1029 10 16 N/A
6:15 am 06:15 Clear 35 1.6 28 -2 77 77 N N/A 30.39 1029 10 16 N/A
6:35 am 06:35 Clear 34 1.2 28 -2.1 79 79 N N/A 30.39 1029 10 16 N/A
6:55 am 06:55 Clear 34 1.2 29 -1.6 82 82 NNE 5 7 30.39 1029 10 16 N/A
7:15 am 07:15 Sunny 34 1.2 28 -2.3 78 78 N N/A 30.39 1029 10 16 N/A
7:35 am 07:35 Sunny 37 2.6 28 -2.2 71 71 ENE 5 7 30.39 1029 10 16 N/A
7:55 am 07:55 Sunny 39 3.8 29 -1.9 67 67 ENE 3 6 30.42 1030 10 16 N/A
8:15 am 08:15 Sunny 39 4 29 -1.9 66 66 ENE 6 9 30.42 1030 10 16 N/A
8:35 am 08:35 Sunny 40 4.4 29 -1.7 65 65 E 7 11 30.42 1030 10 16 N/A
8:55 am 08:55 Sunny 42 5.5 29 -1.7 60 60 E 7 11 30.42 1030 10 16 N/A
9:15 am 09:15 Sunny 43 6.2 28 -2 56 56 E 6 9 30.42 1030 10 16 N/A
9:35 am 09:35 Sunny 47 8.1 29 -1.5 51 51 E 7 11 30.39 1029 10 16 N/A
9:55 am 09:55 Sunny 49 9.6 31 -0.4 50 50 E 12 19 30.39 1029 10 16 N/A
10:15 am 10:15 Sunny 49 9.6 29 -1.4 47 47 E 12 19 30.36 1028 10 16 N/A
10:35 am 10:35 Sunny 49 9.6 28 -2.1 44 44 E 13 20 30.36 1028 10 16 N/A
10:55 am 10:55 Sunny 49 9.6 27 -2.9 42 42 ESE 13 20 30.33 1027 10 16 N/A
11:15 am 11:15 Sunny 49 9.6 25 -3.7 39 39 E 14 22 30.33 1027 10 16 N/A
11:35 am 11:35 Sunny 52 10.9 27 -2.6 39 39 ENE 13 20 30.33 1027 10 16 N/A
11:55 am 11:55 Sunny 53 11.7 28 -2.2 38 38 E 14 22 30.33 1027 10 16 N/A
12:15 pm 12:15 Sunny 55 12.5 30 -1.1 39 39 E 12 19 30.33 1027 10 16 N/A
12:35 pm 12:35 Sunny 55 12.5 29 -1.9 37 37 E 13 20 30.33 1027 10 16 N/A
12:55 pm 12:55 Sunny 55 12.5 28 -2.5 35 35 ENE 8 13 30.33 1027 10 16 N/A
1:15 pm 13:15 Sunny 55 12.5 26 -3.6 33 33 ENE 7 11 30.33 1027 10 16 N/A
1:35 pm 13:35 Sunny 55 12.5 26 -3.6 33 33 E 8 13 30.33 1027 10 16 N/A
1:55 pm 13:55 Sunny 55 12.6 25 -3.7 32 32 E 13 20 30.33 1027 10 16 N/A
2:15 pm 14:15 Sunny 56 13.6 27 -2.9 32 32 E 6 9 30.30 1026 10 16 N/A
2:35 pm 14:35 Sunny 57 13.8 25 -3.9 29 29 E 6 9 30.30 1026 10 16 N/A
2:55 pm 14:55 Sunny 57 13.8 28 -2.4 33 33 NE 5 7 30.30 1026 10 16 N/A
3:15 pm 15:15 Sunny 57 13.8 25 -3.8 30 30 ENE 6 9 30.30 1026 10 16 N/A
3:35 pm 15:35 Sunny 57 13.9 25 -3.8 29 29 NE 8 13 30.30 1026 10 16 N/A
3:55 pm 15:55 Sunny 59 14.9 26 -3.3 29 29 E 5 7 30.27 1025 10 16 N/A
4:15 pm 16:15 Sunny 60 15.3 26 -3.3 28 28 E 8 13 30.27 1025 10 16 N/A
4:35 pm 16:35 Sunny 60 15.3 25 -4 26 26 E 9 15 30.27 1025 10 16 N/A
4:55 pm 16:55 Sunny 60 15.3 24 -4.5 25 25 NE 5 7 30.24 1024 10 16 N/A
5:15 pm 17:15 Sunny 60 15.3 23 -4.8 25 25 ENE 10 17 30.24 1024 10 16 N/A
5:35 pm 17:35 Sunny 60 15.3 21 -6.3 22 22 NE 6 9 30.24 1024 10 16 N/A
5:55 pm 17:55 Sunny 60 15.3 19 -7.1 21 21 ENE 7 11 30.24 1024 10 16 N/A
6:15 pm 18:15 Sunny 60 15.3 21 -6.3 22 22 ESE 6 9 30.24 1024 10 16 N/A
6:35 pm 18:35 Sunny 60 15.3 22 -5.3 24 24 ENE 8 13 30.24 1024 10 16 N/A
6:55 pm 18:55 Sunny 60 15.3 23 -5.1 24 24 ESE 7 11 30.24 1024 10 16 N/A
7:15 pm 19:15 Sunny 59 14.9 25 -3.9 27 27 ENE 7 11 30.24 1024 10 16 N/A
7:35 pm 19:35 Sunny 57 13.8 22 -5.6 26 26 ENE 10 17 30.24 1024 10 16 N/A
7:55 pm 19:55 Sunny 57 13.8 22 -5.5 26 26 E 9 15 30.24 1024 10 16 N/A
8:15 pm 20:15 Clear 55 12.5 23 -4.9 30 30 E 7 11 30.24 1024 10 16 N/A
8:35 pm 20:35 Clear 55 12.5 26 -3.6 33 33 E 5 7 30.24 1024 10 16 N/A
8:55 pm 20:55 Clear 55 12.5 28 -2 37 37 ENE 3 6 30.24 1024 10 16 N/A
9:15 pm 21:15 Clear 49 9.6 35 1.8 59 59 N 5 7 30.24 1024 10 16 N/A
9:35 pm 21:35 Clear 44 6.5 32 0.1 64 64 N 3 6 30.24 1024 10 16 N/A
9:55 pm 21:55 Clear 43 6.1 32 undefined 65 65 NNE 3 6 30.24 1024 10 16 N/A
10:15 pm 22:15 Clear 43 6.2 33 0.6 68 68 NNE 3 6 30.24 1024 10 16 N/A
10:35 pm 22:35 Clear 42 5.7 33 0.3 69 69 NNE 3 6 30.27 1025 10 16 N/A
10:55 pm 22:55 Clear 42 5.5 33 0.4 70 70 NNE 3 6 30.27 1025 10 16 N/A
11:15 pm 23:15 Clear 42 5.8 31 -0.3 65 65 NNE 5 7 30.24 1024 10 16 N/A
11:35 pm 23:35 Clear 47 8.6 31 -0.5 53 53 NNE 6 9 30.24 1024 10 16 N/A
11:55 pm 23:55 Clear 48 9 33 0.5 56 56 NNE 7 11 30.24 1024 10 16 N/A

Powered by AerisWeather